FW3284 Weather Reports


Display with metric or nautical units.
time (UTC)temp
F
wind
direction
speed
MPH
gust
MPH
rain 1hr
in
rain 24hr
in
rain mn
in
humidity
%
barometer
mb
20260906020030 83 132 2.0 3.0 0.00 0.00 0.00 58 1010.7
20260906014516 84 122 2.0 4.0 0.00 0.00 0.00 57 1010.4
20260906013058 84 143 1.0 4.0 0.00 0.00 0.00 56 1010.4
20260906013001 84 143 1.0 4.0 0.00 0.00 0.00 56 1010.4
20260906011538 85 150 0.0 2.0 0.00 0.00 0.00 56 1010.1
20260906010022 86 127 1.0 4.0 0.00 0.00 0.00 54 1010.1
20260906004507 87 124 4.0 7.0 0.00 0.00 0.00 54 1010.4
20260906003043 88 115 7.0 11.0 0.00 0.00 0.00 52 1010.5
20260906001523 90 103 1.0 3.0 0.00 0.00 0.00 47 1010.2
20260906000005 91 132 2.0 4.0 0.00 0.00 0.00 46 1010.1
20260905234547 91 129 2.0 9.0 0.00 0.00 0.00 45 1009.9
20260905233025 92 126 4.0 13.0 0.00 0.00 0.00 43 1009.9
20260905231518 96 97 2.0 7.0 0.00 0.00 0.00 36 1009.8
20260905230100 95 34 5.0 14.0 0.00 0.00 0.00 34 1009.9
20260905224606 91 72 9.0 18.0 0.00 0.00 0.00 43 1009.9
20260905223004 98 53 4.0 13.0 0.00 0.00 0.00 39 1010.1
20260905221546 99 359 0.0 5.0 0.00 0.00 0.00 36 1009.7
20260905220024 101 67 2.0 3.0 0.00 0.00 0.00 35 1009.8
20260905214510 101 320 0.0 4.0 0.00 0.00 0.00 34 1009.8
20260905213055 102 219 0.0 3.0 0.00 0.00 0.00 34 1009.9
20260905211540 100 174 1.0 5.0 0.00 0.00 0.00 35 1010.1
20260905210016 100 90 1.0 3.0 0.00 0.00 0.00 35 1010.3
20260905204540 101 127 1.0 4.0 0.00 0.00 0.00 35 1010.6
20260905203022 99 346 0.0 5.0 0.00 0.00 0.00 37 1010.7
20260905201504 100 33 0.0 4.0 0.00 0.00 0.00 36 1010.9
20260905200048 98 37 3.0 8.0 0.00 0.00 0.00 37 1011.1
20260905194531 100 302 1.0 4.0 0.00 0.00 0.00 36 1011.3
20260905193010 98 256 1.0 5.0 0.00 0.00 0.00 39 1011.4
20260905191547 98 173 2.0 5.0 0.00 0.00 0.00 39 1011.7
20260905190028 96 83 5.0 8.0 0.00 0.00 0.00 40 1012.1
20260905184524 95 32 1.0 10.0 0.00 0.00 0.00 42 1012.2
20260905183050 97 53 5.0 9.0 0.00 0.00 0.00 40 1012.4
20260905181533 97 16 2.0 7.0 0.00 0.00 0.00 41 1012.7
20260905180017 96 355 2.0 6.0 0.00 0.00 0.00 43 1012.8
20260905174554 96 70 0.0 8.0 0.00 0.00 0.00 44 1013.1
20260905173047 95 42 1.0 6.0 0.00 0.00 0.00 44 1013.3
20260905171514 95 8 2.0 9.0 0.00 0.00 0.00 47 1013.5
20260905170109 94 330 2.0 9.0 0.00 0.00 0.00 46 1013.6
20260905164533 93 331 3.0 9.0 0.00 0.00 0.00 48 1013.8
20260905163014 92 306 1.0 7.0 0.00 0.00 0.00 50 1013.7
20260905161604 92 274 2.0 7.0 0.00 0.00 0.00 49 1013.9
20260905160030 91 311 2.0 10.0 0.00 0.00 0.00 51 1013.9
20260905154513 91 309 4.0 8.0 0.00 0.00 0.00 52 1013.8
20260905153053 90 316 3.0 11.0 0.00 0.00 0.00 52 1013.7
20260905151536 89 327 4.0 10.0 0.00 0.00 0.00 52 1013.8
20260905150012 89 307 2.0 5.0 0.00 0.00 0.00 55 1013.6
20260905144550 88 253 1.0 4.0 0.00 0.00 0.00 56 1013.5
20260905143027 87 300 1.0 3.0 0.00 0.00 0.00 58 1013.4
20260905141508 86 217 1.0 5.0 0.00 0.00 0.00 59 1013.4
20260905140046 85 235 0.0 2.0 0.00 0.00 0.00 60 1013.4
20260905134522 83 249 2.0 8.0 0.00 0.00 0.00 62 1013.4
20260905133004 83 214 1.0 3.0 0.00 0.00 0.00 64 1013.3
20260905131540 81 185 0.0 4.0 0.00 0.00 0.00 66 1013.2
20260905130023 80 112 0.0 2.0 0.00 0.00 0.00 70 1013.2
20260905124557 78 175 0.0 2.0 0.00 0.00 0.00 72 1013.1
20260905123036 76 108 0.0 1.0 0.00 0.00 0.00 74 1013.0
20260905121523 75 108 0.0 1.0 0.00 0.00 0.00 75 1012.8
20260905120003 74 108 0.0 2.0 0.00 0.00 0.00 76 1012.9
20260905114540 74 102 0.0 2.0 0.00 0.00 0.00 76 1012.6
20260905113018 75 131 0.0 3.0 0.00 0.00 0.00 73 1012.5
20260905111558 75 122 0.0 2.0 0.00 0.00 0.00 74 1012.5
20260905111505 75 182 0.0 2.0 0.00 0.00 0.00 74 1012.4
20260905110037 74 153 0.0 2.0 0.00 0.00 0.00 74 1012.4
20260905104518 75 153 0.0 1.0 0.00 0.00 0.00 74 1012.5
20260905103058 75 153 0.0 2.0 0.00 0.00 0.00 74 1012.4
20260905103004 75 153 0.0 2.0 0.00 0.00 0.00 73 1012.5
20260905101537 75 153 0.0 1.0 0.00 0.00 0.00 72 1012.4
20260905100031 76 151 0.0 2.0 0.00 0.00 0.00 71 1012.5
20260905094551 77 169 1.0 2.0 0.00 0.00 0.00 69 1012.4
20260905093029 78 174 0.0 2.0 0.00 0.00 0.00 67 1012.2
20260905091511 79 167 0.0 4.0 0.00 0.00 0.00 66 1012.1
20260905090047 79 198 1.0 3.0 0.00 0.00 0.00 65 1012.1
20260905084526 79 256 0.0 4.0 0.00 0.00 0.00 65 1012.1
20260905083008 80 255 2.0 4.0 0.00 0.00 0.00 64 1012.1
20260905081551 79 297 0.0 2.0 0.00 0.00 0.00 64 1012.1
20260905080031 80 186 0.0 2.0 0.00 0.00 0.00 64 1012.1
20260905074522 80 188 0.0 2.0 0.00 0.00 0.00 64 1012.1
20260905073056 80 219 1.0 4.0 0.00 0.00 0.00 63 1012.3
20260905071535 81 214 0.0 5.0 0.00 0.00 0.00 62 1012.3
20260905070012 81 229 0.0 2.0 0.00 0.00 0.00 62 1012.5
20260905064609 82 191 1.0 5.0 0.00 0.00 0.00 61 1012.3
20260905063034 82 212 1.0 4.0 0.00 0.00 0.00 60 1012.3
20260905061510 82 262 0.0 3.0 0.00 0.00 0.00 60 1012.3
20260905060049 82 311 0.0 4.0 0.00 0.00 0.00 60 1012.3
20260905054557 82 233 1.0 4.0 0.00 0.00 0.00 60 1012.3
20260905053011 81 252 0.0 2.0 0.00 0.00 0.00 62 1012.4
20260905051547 81 160 0.0 2.0 0.00 0.00 0.00 61 1012.4
20260905050031 81 244 0.0 2.0 0.00 0.00 0.00 62 1012.3
20260905044511 80 165 0.0 5.0 0.00 0.00 0.00 64 1012.3
20260905043101 78 138 0.0 2.0 0.00 0.00 0.00 69 1012.3
20260905041529 78 129 2.0 3.0 0.00 0.00 0.00 70 1012.3
20260905040011 80 120 1.0 2.0 0.00 0.00 0.00 68 1012.2
20260905034545 80 170 0.0 2.0 0.00 0.00 0.00 68 1012.2
20260905033027 80 135 1.0 2.0 0.00 0.00 0.00 68 1012.3
20260905031507 81 134 0.0 2.0 0.00 0.00 0.00 67 1012.2
20260905030049 81 148 0.0 1.0 0.00 0.00 0.00 67 1012.1
20260905024540 82 148 0.0 2.0 0.00 0.00 0.00 65 1011.9
20260905023015 83 167 1.0 2.0 0.00 0.00 0.00 62 1011.7
20260905021504 85 169 1.0 1.0 0.00 0.00 0.00 59 1011.5